Location: Nelson
(41.2830°S, 173.2830°E)
Time: 19:24:46
(UTC+13:00)

BREEZE-M DEB (TANK) - Pass Details

Date: 24 January 2019
Orbit: 279 x 14013 km, 46.1° (Epoch: 21 February)

Event Time Altitude Azimuth Distance (km) Brightness Sun altitude
Rises 22:17:29 0° 290° (WNW) 4,507 7.4 -13.6°
Reaches altitude 10° 22:21:47 10° 288° (WNW) 2,421 6.0 -14.2°
Maximum altitude 22:26:15 70° 204° (SSW) 441 2.0 -14.8°
Enters shadow 22:28:08 14° 119° (ESE) 1,045 3.6 -15.1°
